Location: Sofia
(42.6977°N, 23.3219°E)
Time: 00:12:42
(UTC+02:00)

NOAA 15 - Visible Passes

Search period start: 22 February 2024 00:00
Search period end: 03 March 2024 00:00
Orbit: 796 x 810 km, 98.6° (Epoch: 21 February)

Date Brightness Start Highest point End Pass type
(mag) Time Alt. Az. Time Alt. Az. Time Alt. Az.
22 Feb 4.7 19:19:38 10° SSE 19:24:54 81° WSW 19:30:13 10° NNW visible
23 Feb 4.6 18:54:08 10° SSE 18:59:18 61° ENE 19:04:32 10° N visible
23 Feb 7.3 20:36:02 10° SW 20:39:28 17° W 20:42:56 10° NW visible
24 Feb 5.2 18:29:02 10° SE 18:33:49 36° ENE 18:38:37 10° N visible
24 Feb 6.5 20:09:02 10° SSW 20:13:35 29° W 20:18:11 10° NW visible
25 Feb 5.5 19:42:43 10° S 19:47:49 50° W 19:52:58 10° NNW visible
26 Feb 4.7 19:16:52 10° SSE 19:22:09 85° WSW 19:27:28 10° NNW visible
26 Feb 7.8 21:02:01 10° W 21:02:39 10° W 21:03:17 10° W visible
27 Feb 4.7 18:51:25 10° SSE 18:56:34 58° ENE 19:01:46 10° N visible
27 Feb 7.2 20:33:04 10° SW 20:36:41 19° W 20:40:19 10° NW visible
28 Feb 6.4 20:06:11 10° SSW 20:10:49 31° W 20:15:30 10° NNW visible
29 Feb 5.4 19:39:55 10° S 19:45:03 53° W 19:50:15 10° NNW visible
01 Mar 4.6 19:14:06 10° SSE 19:19:23 89° WSW 19:24:43 10° NNW visible
01 Mar 7.7 20:58:27 10° WSW 20:59:51 11° W 21:01:16 10° WNW visible
02 Mar 4.7 18:48:41 10° SSE 18:53:49 55° ENE 18:58:59 10° N visible
02 Mar 7.2 20:30:08 10° SW 20:33:53 20° W 20:37:41 10° NW visible
